LARES (38077 NORAD) Tracking and Keplerian Element Data

This shows tracking and keplerian element data for the satellite.

Feedback or suggestion? Click here.




ElementValue
Catalog38077
NameLARES
Epoch Orbit29442
Epoch Day198.93122824
Epoch Year2018
RAAN190.7607
Inclination69.4883
Eccentricity0.0011564
Argument of Perigee252.4571
Mean Anonmoly107.5157
Mean Motion12.54931489
Decay Rate-2E-08
L11 38077U 12006A 18198.93122824 -.00000002 00000-0 22536-3 0 9996
L22 38077 69.4883 190.7607 0011564 252.4571 107.5157 12.54931489294421

Live tracking and technical data element details for LARES (NORAD 38077). LARES can be tracked NOW for your location showing map with azimuth and elevation plus other details from your city location.

Track the satellite on the map from your city or location and see movement details for azimuth, elevation, latitude, longitude, range, height, and movement on the map or in text.







IsCatalogInMostPopularTable: catalog: 38077, numindb: 41
Update: records affected: 1



GetName: 38077 LARES

Hit Count: updated at: Wed, 18 Jul 2018 20:19:37 GMT